ギブス彗星

P/2021 Q1 ( Gibbs )

English version
Home page
Updated on August 28, 2021

---------------------------------------------------------------------

・ プロフィール

検出日 2021年8月16日
検出光度 20.0等
検出者 E. Schwab (Egelsbach, Germany)

・ 写真集

・ 軌道要素

Epoch 2021 May 26.0 TT = JDT 2459360.5                                          
T 2021 May 14.67928 TT                                  Rudenko                 
q   1.6739860            (2000.0)            P               Q                  
n   0.15147411     Peri.   36.81394     +0.90886593     +0.39661101             
a   3.4853290      Node   299.33851     -0.40920622     +0.78802886             
e   0.5197050      Incl.    8.51539     -0.08070303     +0.47086116             
P   6.51                                                                        
From 77 observations 2014 Nov. 30-2021 Aug. 17, mean residual 0".7.             

・ 星図

・ 光度変化

        m1 = 16.0 + 5 logΔ + 10.0 log r

        ※ 灰色の曲線は、m1 = 14.0 + 5 logΔ + 10.0 log r の光度曲線です。

---------------------------------------------------------------------

軌道要素はM.P.E.C. 2021-Q47に掲載されたものです。
星図はステラナビゲータ Ver.10 (アストロアーツ) で作成したものです。
光度グラフはComet for Windowsで作成したものです。

---------------------------------------------------------------------

Copyright(C) Seiichi Yoshida (comet@aerith.net). All rights reserved.